Location: Stonelick Lake State Park
(39.2170°N, 84.0850°W)
Time: 12:25:24
(UTC-04:00)

Amateur Radio Satellites - All Passes

Search period start: 28 July 2014 11:55
Search period end: 29 July 2014 11:55
Location: Stonelick Lake State Park, 39.2170°N, 84.0850°W

Satellite Date Start Highest point End Downlink Frequencies (MHz)
Time Altitude Azimuth
FUNcube-1 28 Jul 12:04:02 12:08:13 81° 102° (ESE) 12:12:26 145.950 - 145.970 MHz USB
PCSat 28 Jul 12:20:16 12:24:29 23° 253° (WSW) 12:28:41 145.825 MHz
SO-50 28 Jul 12:26:40 12:29:19 16° 109° (ESE) 12:31:58 436.795 FM
Oscar 19 28 Jul 13:02:00 13:04:43 15° 62° (ENE) 13:07:27 437.125 CW, 437.150 USB
HO-68 28 Jul 13:03:16 13:06:33 14° 307° (NW) 13:09:51 435.675 MHz FM
AO-Echo 28 Jul 13:24:54 13:26:46 12° 60° (ENE) 13:28:38 ?
Oscar 16 28 Jul 13:28:27 13:32:41 27° 67° (ENE) 13:36:57 437.025 USB, Beacon 2401.1428
RS-15 28 Jul 13:34:27 13:44:39 43° 109° (ESE) 13:54:37 29.354 - 29.394 USB, Beacon 29.352 USB
ITAMSAT 1 28 Jul 13:48:38 13:52:16 19° 64° (ENE) 13:55:54 435.822 SSB
JAS-1B 28 Jul 13:51:29 13:58:29 26° 56° (NE) 14:05:55 435.800 - 435.900 CW/SSB
SO-50 28 Jul 14:05:03 14:09:24 52° 305° (NW) 14:13:51 436.795 FM
AO-27 28 Jul 14:06:42 14:11:08 29° 67° (ENE) 14:15:34 436.795 MHz FM
Uribyol 2 28 Jul 14:07:15 14:11:43 30° 68° (ENE) 14:16:12 436.500 FM
Gurwin Techsat 1B 28 Jul 14:26:28 14:29:59 18° 63° (ENE) 14:33:30 435.225 FM
UOSAT-12 28 Jul 14:30:29 14:33:54 21° 110° (ESE) 14:37:23 437.025 FM, 437.400 FM
Oscar 19 28 Jul 14:38:23 14:43:28 68° 258° (WSW) 14:48:35 437.125 CW, 437.150 USB
AO-7 28 Jul 14:55:35 14:59:48 15° 48° (NE) 15:04:00 29.400 - 29.500 MHz
KITSAT 1 28 Jul 14:58:27 15:05:12 28° 43° (NE) 15:11:53 435.175 FM
AO-Echo 28 Jul 14:59:25 15:04:43 90° 76° (ENE) 15:10:04 ?
Oscar 16 28 Jul 15:07:16 15:11:53 34° 263° (W) 15:16:32 437.025 USB, Beacon 2401.1428
ITAMSAT 1 28 Jul 15:26:16 15:31:21 52° 260° (W) 15:36:26 435.822 SSB
JAS-1B 28 Jul 15:38:56 15:47:41 84° 256° (WSW) 15:57:36 435.800 - 435.900 CW/SSB
TMSAT-1 28 Jul 15:40:12 15:45:25 62° 73° (ENE) 15:50:40 436.925 FM
AO-27 28 Jul 15:45:50 15:50:31 33° 263° (W) 15:55:14 436.795 MHz FM
RS-15 28 Jul 15:45:53 15:56:41 55° 310° (NW) 16:07:22 29.354 - 29.394 USB, Beacon 29.352 USB
Uribyol 2 28 Jul 15:46:31 15:51:06 31° 263° (W) 15:55:43 436.500 FM
Gurwin Techsat 1B 28 Jul 16:04:15 16:09:28 57° 259° (W) 16:14:43 435.225 FM
UOSAT-12 28 Jul 16:09:23 16:13:45 42° 307° (NW) 16:18:13 437.025 FM, 437.400 FM
Saudisat 1A 28 Jul 16:21:14 16:24:16 18° 45° (NE) 16:27:16 436.775 MHz
AO-7 28 Jul 16:42:47 16:51:03 68° 68° (ENE) 16:59:20 29.400 - 29.500 MHz
AO-Echo 28 Jul 16:44:05 16:44:07 10° 272° (W) 16:44:10 ?
KITSAT 1 28 Jul 16:53:18 17:01:22 75° 244° (WSW) 17:09:22 435.175 FM
Uosat F 28 Jul 16:56:14 17:01:16 76° 75° (ENE) 17:06:19 435.120 FM
TMSAT-1 28 Jul 17:22:44 17:25:44 15° 269° (W) 17:28:46 436.925 FM
JAS-1B 28 Jul 17:33:58 17:39:34 18° 276° (W) 17:45:35 435.800 - 435.900 CW/SSB
OPAL 28 Jul 17:46:58 17:52:04 79° 105° (ESE) 17:57:12 ?
Saudisat 1A 28 Jul 17:59:52 18:04:11 55° 242° (WSW) 18:08:28 436.775 MHz
RS-15 28 Jul 18:04:42 18:12:19 21° 340° (NNW) 18:19:58 29.354 - 29.394 USB, Beacon 29.352 USB
Hamsat 28 Jul 18:05:07 18:08:32 25° 69° (ENE) 18:11:58 145.90 MHz
JAS-2 28 Jul 18:06:26 18:13:21 37° 67° (ENE) 18:19:54 435.800 - 435.900 CW/SSB, 435.910 FM
AO-7 28 Jul 18:37:48 18:44:22 25° 266° (W) 18:50:58 29.400 - 29.500 MHz
Uosat F 28 Jul 18:39:05 18:40:34 11° 270° (W) 18:42:04 435.120 FM
KITSAT 1 28 Jul 18:52:19 18:55:22 13° 261° (W) 18:58:24 435.175 FM
SO-67 28 Jul 18:54:32 18:54:56 10° 66° (ENE) 18:55:19 435.3500 MHz FM
OPAL 28 Jul 19:27:58 19:30:17 13° 301° (WNW) 19:32:37 ?
Hamsat 28 Jul 19:40:59 19:44:25 25° 265° (W) 19:47:53 145.90 MHz
JAS-2 28 Jul 19:50:40 19:58:08 47° 262° (W) 20:05:15 435.800 - 435.900 CW/SSB, 435.910 FM
HO-68 28 Jul 19:56:44 20:00:15 14° 53° (NE) 20:03:46 435.675 MHz FM
STRAND 1 28 Jul 20:09:29 20:14:30 54° 101° (E) 20:19:28 ?
RS-15 28 Jul 20:23:09 20:30:35 20° 18° (NNE) 20:38:05 29.354 - 29.394 USB, Beacon 29.352 USB
SO-67 28 Jul 20:24:16 20:27:34 43° 261° (W) 20:30:55 435.3500 MHz FM
SO-50 28 Jul 20:58:14 21:01:02 15° 42° (NE) 21:03:50 436.795 FM
MaSat-1 28 Jul 21:05:59 21:08:06 14° 99° (E) 21:10:22 437.345 MHz
HO-68 28 Jul 21:39:38 21:46:47 76° 72° (ENE) 21:53:57 435.675 MHz FM
STRAND 1 28 Jul 21:49:53 21:53:14 18° 297° (WNW) 21:56:34 ?
UKube-1 28 Jul 21:53:03 21:57:21 60° 74° (ENE) 22:01:40 145.840 MHz, 145.915 MHz
RS-15 28 Jul 22:35:51 22:46:30 50° 48° (NE) 22:57:28 29.354 - 29.394 USB, Beacon 29.352 USB
SO-50 28 Jul 22:37:24 22:42:10 81° 240° (WSW) 22:47:00 436.795 FM
Oscar 11 28 Jul 22:38:35 22:42:53 87° 258° (WSW) 22:47:13 145.825 FM, Beacon 2401.500 USB
MaSat-1 28 Jul 22:40:50 22:44:44 48° 300° (WNW) 22:49:18 437.345 MHz
FUNcube-1 28 Jul 22:59:21 23:03:36 56° 74° (ENE) 23:07:46 145.950 - 145.970 MHz USB
UOSAT-12 28 Jul 23:00:40 23:03:51 18° 43° (NE) 23:07:00 437.025 FM, 437.400 FM
HO-68 28 Jul 23:30:24 23:35:07 19° 268° (W) 23:39:51 435.675 MHz FM
UKube-1 28 Jul 23:32:36 23:33:55 11° 269° (W) 23:35:14 145.840 MHz, 145.915 MHz
ISS 29 Jul 00:28:46 00:32:06 85° 140° (SE) 00:35:28 145.800 FM
FUNcube-1 29 Jul 00:38:49 00:40:18 12° 269° (W) 00:41:47 145.950 - 145.970 MHz USB
UOSAT-12 29 Jul 00:39:46 00:44:28 66° 241° (WSW) 00:49:05 437.025 FM, 437.400 FM
Sapphire 29 Jul 00:44:26 00:48:43 25° 107° (ESE) 00:53:02 437.095 MHz 1200 baud AX-25 AFSK
RS-15 29 Jul 00:48:25 00:58:49 49° 250° (WSW) 01:09:38 29.354 - 29.394 USB, Beacon 29.352 USB
PCSat 29 Jul 01:16:43 01:21:56 52° 113° (ESE) 01:27:11 145.825 MHz
AO-40 29 Jul 02:00:08 04:08:51 19° 119° (ESE) 05:16:56 Beacon 2401.320
ISS 29 Jul 02:06:50 02:09:12 18° 339° (NNW) 02:11:34 145.800 FM
Uribyol 2 29 Jul 02:23:41 02:24:43 11° 89° (E) 02:25:44 436.500 FM
Sapphire 29 Jul 02:26:43 02:31:51 44° 304° (NW) 02:37:02 437.095 MHz 1200 baud AX-25 AFSK
Oscar 19 29 Jul 02:51:06 02:56:05 46° 99° (E) 03:01:03 437.125 CW, 437.150 USB
PCSat 29 Jul 03:01:21 03:05:39 23° 311° (NW) 03:09:57 145.825 MHz
AO-Echo 29 Jul 03:08:37 03:13:06 31° 96° (E) 03:17:26 ?
Oscar 16 29 Jul 03:19:21 03:24:33 89° 284° (WNW) 03:29:43 437.025 USB, Beacon 2401.1428
OPAL 29 Jul 03:25:04 03:27:46 15° 60° (ENE) 03:30:29 ?
JAS-1B 29 Jul 03:27:49 03:36:15 38° 93° (E) 03:43:30 435.800 - 435.900 CW/SSB
ITAMSAT 1 29 Jul 03:40:08 03:45:17 62° 101° (ESE) 03:50:22 435.822 SSB
TMSAT-1 29 Jul 03:57:41 04:02:08 27° 95° (E) 04:06:33 436.925 FM
AO-27 29 Jul 03:59:19 04:04:32 86° 285° (WNW) 04:09:42 436.795 MHz FM
Uribyol 2 29 Jul 03:59:36 04:04:47 82° 285° (WNW) 04:09:55 436.500 FM
Gurwin Techsat 1B 29 Jul 04:21:29 04:26:46 63° 101° (ESE) 04:32:00 435.225 FM
Oscar 19 29 Jul 04:31:17 04:35:05 21° 295° (WNW) 04:38:53 437.125 CW, 437.150 USB
AO-7 29 Jul 04:46:53 04:53:05 23° 93° (E) 04:59:14 29.400 - 29.500 MHz
AO-Echo 29 Jul 04:47:29 04:51:45 28° 293° (WNW) 04:55:54 ?
OPAL 29 Jul 05:01:12 05:06:06 65° 256° (WSW) 05:11:02 ?
Oscar 16 29 Jul 05:01:42 05:03:06 11° 301° (WNW) 05:04:31 437.025 USB, Beacon 2401.1428
Uosat F 29 Jul 05:05:44 05:09:51 25° 95° (E) 05:13:56 435.120 FM
JAS-1B 29 Jul 05:17:59 05:26:55 50° 294° (WNW) 05:34:38 435.800 - 435.900 CW/SSB
ITAMSAT 1 29 Jul 05:21:07 05:24:14 16° 298° (WNW) 05:27:21 435.822 SSB
ISS 29 Jul 05:22:39 05:24:52 16° 20° (NNE) 05:27:04 145.800 FM
KITSAT 1 29 Jul 05:28:34 05:33:22 17° 101° (E) 05:38:11 435.175 FM
TMSAT-1 29 Jul 05:37:18 05:42:05 36° 291° (WNW) 05:46:51 436.925 FM
AO-27 29 Jul 05:42:10 05:43:13 11° 301° (WNW) 05:44:15 436.795 MHz FM
PANSAT 29 Jul 05:50:18 05:52:06 13° 168° (SSE) 05:53:54 not established
Gurwin Techsat 1B 29 Jul 06:02:56 06:06:10 17° 298° (WNW) 06:09:24 435.225 FM
AO-7 29 Jul 06:38:14 06:46:32 74° 291° (WNW) 06:54:46 29.400 - 29.500 MHz
Uosat F 29 Jul 06:44:08 06:48:40 35° 291° (WNW) 06:53:10 435.120 FM
ISS 29 Jul 06:58:40 07:02:02 78° 38° (NE) 07:05:23 145.800 FM
MaSat-1 29 Jul 07:00:03 07:04:54 35° 57° (ENE) 07:09:30 437.345 MHz
JAS-2 29 Jul 07:03:16 07:08:02 26° 92° (E) 07:12:27 435.800 - 435.900 CW/SSB, 435.910 FM
JAS-1B 29 Jul 07:12:18 07:14:55 12° 316° (NW) 07:17:28 435.800 - 435.900 CW/SSB
KITSAT 1 29 Jul 07:19:32 07:27:39 90° 298° (WNW) 07:35:48 435.175 FM
STRAND 1 29 Jul 07:24:15 07:29:22 71° 74° (ENE) 07:34:30 ?
Hamsat 29 Jul 07:26:45 07:31:01 60° 100° (E) 07:35:18 145.90 MHz
PANSAT 29 Jul 07:29:07 07:31:37 17° 181° (S) 07:34:07 not established
SO-67 29 Jul 07:50:32 07:52:15 13° 92° (E) 07:53:57 435.3500 MHz FM
Saudisat 1A 29 Jul 08:05:09 08:09:23 48° 117° (ESE) 08:13:39 436.775 MHz
AO-7 29 Jul 08:33:17 08:37:54 16° 311° (NW) 08:42:31 29.400 - 29.500 MHz
MaSat-1 29 Jul 08:37:34 08:42:08 30° 255° (WSW) 08:46:26 437.345 MHz
ISS 29 Jul 08:37:35 08:38:17 11° 233° (SW) 08:38:59 145.800 FM
JAS-2 29 Jul 08:47:52 08:53:19 39° 292° (WNW) 08:58:16 435.800 - 435.900 CW/SSB, 435.910 FM
Hamsat 29 Jul 09:04:47 09:06:28 12° 296° (WNW) 09:08:10 145.90 MHz
STRAND 1 29 Jul 09:06:52 09:09:02 13° 270° (W) 09:11:13 ?
PANSAT 29 Jul 09:09:49 09:11:07 11° 194° (SSW) 09:12:25 not established
HO-68 29 Jul 09:11:19 09:14:36 14° 89° (E) 09:17:53 435.675 MHz FM
KITSAT 1 29 Jul 09:17:55 09:24:09 24° 320° (NW) 09:30:26 435.175 FM
SO-67 29 Jul 09:22:18 09:25:24 31° 287° (WNW) 09:28:30 435.3500 MHz FM
Sapphire 29 Jul 09:33:07 09:36:54 19° 46° (NE) 09:40:40 437.095 MHz 1200 baud AX-25 AFSK
UKube-1 29 Jul 09:45:06 09:46:14 11° 91° (E) 09:47:21 145.840 MHz, 145.915 MHz
Saudisat 1A 29 Jul 09:45:58 09:49:13 20° 314° (NW) 09:52:30 436.775 MHz
PCSat 29 Jul 10:05:49 10:10:45 34° 53° (NE) 10:15:39 145.825 MHz
Oscar 11 29 Jul 10:28:17 10:31:18 18° 93° (E) 10:34:19 145.825 FM, Beacon 2401.500 USB
FUNcube-1 29 Jul 10:52:00 10:53:07 11° 91° (E) 10:54:14 145.950 - 145.970 MHz USB
HO-68 29 Jul 10:56:01 11:03:12 86° 106° (ESE) 11:10:21 435.675 MHz FM
Sapphire 29 Jul 11:15:27 11:20:51 70° 245° (WSW) 11:26:13 437.095 MHz 1200 baud AX-25 AFSK
UKube-1 29 Jul 11:18:31 11:22:49 61° 286° (WNW) 11:27:05 145.840 MHz, 145.915 MHz
